{"data":{"norad_id":68182,"intl_designator":"2026-050R","name":"STARLINK-37082","alt_names":[],"object_type":"PAYLOAD","status":"ACTIVE","operator":null,"country":"US","launch_date":"2026-03-14","launch_site_code":"AFETR","launch_vehicle":null,"mission":null,"orbit_class":"UNKNOWN","rcs_meters":null,"size_class":null,"mass_kg":null,"dimensions":null,"purposes":["comms"],"wikipedia_slug":null,"has_3d_model":false,"image_url":null,"decayed_at":null,"tle_current":{"epoch":"2026-05-24T17:50:20.373504Z","epoch_age_seconds":97342,"freshness":"FRESH","line1":"1 68182U 26050R   26144.74329136  .00020642  00000+0  62041-3 0  9999","line2":"2 68182  53.1597 273.0475 0001038  67.0841 293.0271 15.34398908 12336","mean_motion":15.34398908,"eccentricity":0.0001038,"inclination_deg":53.1597,"raan_deg":273.0475,"arg_perigee_deg":67.0841,"mean_anomaly_deg":293.0271,"bstar":0.00062041,"rev_number":1233,"period_min":93.847824870845,"perigee_km":461.99640630933,"apogee_km":463.41656541699,"semimajor_km":6840.8434858632,"source":"CELESTRAK","updated_at":"2026-05-25T13:38:21.855627Z"}}}